DW6885 Weather Reports


Display with metric or nautical units.
time (UTC)temp
F
wind
direction
speed
MPH
gust
MPH
rain 1hr
in
rain 24hr
in
rain mn
in
humidity
%
barometer
mb
20161203172510 37 250 4.0 9.0 0.00 0.00 0.00 71 1012.1
20161203172010 37 19 1.0 9.0 0.00 0.00 0.00 72 1012.0
20161203171714 37 19 1.0 9.0 0.00 0.00 0.00 73 1012.0
20161203171510 37 88 1.0 9.0 0.00 0.00 0.00 72 1012.1
20161203170511 37 16 2.0 9.0 0.00 0.00 0.00 72 1012.0
20161203165915 37 90 4.0 9.0 0.00 0.00 0.00 71 1012.0
20161203164510 38 321 1.0 9.0 0.00 0.00 0.00 72 1012.0
20161203164409 37 242 0.0 10.0 0.00 0.00 0.00 72 1012.0
20161203164010 38 251 2.0 9.0 0.00 0.00 0.00 71 1012.0
20161203163511 38 205 3.0 8.0 0.00 0.00 0.00 71 1012.0
20161203163011 38 305 3.0 6.0 0.00 0.00 0.00 71 1011.9
20161203162727 38 256 2.0 8.0 0.00 0.00 0.00 71 1012.0
20161203162513 38 344 2.0 7.0 0.00 0.00 0.00 72 1012.0
20161203162010 38 302 2.0 9.0 0.00 0.00 0.00 73 1012.0
20161203161010 37 219 2.0 12.0 0.00 0.00 0.00 74 1012.0
20161203160914 37 310 2.0 11.0 0.00 0.00 0.00 74 1012.0
20161203155213 36 301 2.0 9.0 0.00 0.00 0.00 74 1011.9
20161203154510 37 165 1.0 9.0 0.00 0.00 0.00 75 1011.9
20161203154010 36 312 3.0 9.0 0.00 0.00 0.00 75 1012.0
20161203153535 36 78 4.0 12.0 0.00 0.00 0.00 74 1012.1
20161203153511 36 282 3.0 12.0 0.00 0.00 0.00 74 1012.0
20161203151944 35 153 0.0 10.0 0.00 0.00 0.00 76 1012.1
20161203151010 36 357 2.0 10.0 0.00 0.00 0.00 76 1012.0
20161203150215 35 217 1.0 13.0 0.00 0.00 0.00 76 1012.0
20161203145011 35 358 3.0 10.0 0.00 0.00 0.00 76 1011.9
20161203144516 35 336 2.0 9.0 0.00 0.00 0.00 76 1011.9
20161203144510 35 345 3.0 9.0 0.00 0.00 0.00 77 1011.9
20161203143511 36 26 1.0 12.0 0.00 0.00 0.00 76 1011.8
20161203142510 36 193 1.0 7.0 0.00 0.00 0.00 77 1011.5
20161203142010 35 321 2.0 7.0 0.00 0.00 0.00 77 1011.4
20161203141253 35 237 1.0 7.0 0.00 0.00 0.00 77 1011.5
20161203135513 35 5 1.0 3.0 0.00 0.00 0.00 77 1011.1
20161203134317 34 302 1.0 4.0 0.00 0.00 0.00 78 1011.1
20161203132813 33 63 0.0 3.0 0.00 0.00 0.00 81 1011.0
20161203131311 32 124 1.0 8.0 0.00 0.00 0.00 83 1010.8
20161203125832 32 71 0.0 1.0 0.00 0.00 0.00 86 1010.7
20161203124310 31 71 0.0 2.0 0.00 0.00 0.00 85 1010.6
20161203122844 31 24 0.0 1.0 0.00 0.00 0.00 86 1010.3
20161203122513 32 24 0.0 3.0 0.00 0.00 0.00 86 1010.3
20161203121328 31 24 0.0 4.0 0.00 0.00 0.00 85 1010.1
20161203114038 31 236 0.0 3.0 0.00 0.00 0.00 85 1009.8
20161203113513 31 171 1.0 3.0 0.00 0.00 0.00 85 1009.6
20161203112509 31 328 0.0 2.0 0.00 0.00 0.00 84 1009.4
20161203111513 32 298 0.0 3.0 0.00 0.00 0.00 83 1009.5
20161203110914 32 226 0.0 3.0 0.00 0.00 0.00 84 1009.5
20161203110514 32 226 0.0 3.0 0.00 0.00 0.00 82 1009.5
20161203105418 32 19 0.0 2.0 0.00 0.00 0.00 82 1009.2
20161203104513 33 11 0.0 3.0 0.00 0.00 0.00 82 1009.1
20161203103912 32 119 0.0 4.0 0.00 0.00 0.00 82 1008.9
20161203103513 33 321 1.0 3.0 0.00 0.00 0.00 81 1008.9
20161203102309 33 101 0.0 6.0 0.00 0.00 0.00 80 1008.6
20161203100810 33 355 1.0 12.0 0.00 0.00 0.00 81 1008.2
20161203095311 33 106 0.0 8.0 0.00 0.00 0.00 81 1008.1
20161203094513 33 77 0.0 9.0 0.00 0.00 0.00 82 1007.8
20161203093835 33 238 1.0 8.0 0.00 0.00 0.00 83 1007.8
20161203092512 33 137 0.0 5.0 0.00 0.00 0.00 83 1007.7
20161203092312 32 298 0.0 6.0 0.00 0.00 0.00 83 1007.7
20161203090827 32 171 0.0 4.0 0.00 0.00 0.00 83 1007.6
20161203090513 33 312 0.0 6.0 0.00 0.00 0.00 83 1007.5
20161203085513 33 217 1.0 2.0 0.00 0.00 0.00 82 1007.4
20161203085313 32 217 0.0 4.0 0.00 0.00 0.00 82 1007.5
20161203083512 33 275 0.0 6.0 0.00 0.00 0.00 81 1007.6
20161203082513 33 264 1.0 8.0 0.00 0.00 0.00 80 1007.6
20161203082321 33 264 0.0 8.0 0.00 0.00 0.00 80 1007.6
20161203080818 33 146 1.0 8.0 0.00 0.00 0.00 80 1007.7
20161203075513 33 331 2.0 8.0 0.00 0.00 0.00 81 1007.7
20161203075325 33 261 1.0 8.0 0.00 0.00 0.00 81 1007.7
20161203073514 32 149 0.0 6.0 0.00 0.00 0.00 83 1007.8
20161203072023 32 345 0.0 4.0 0.00 0.00 0.00 86 1007.9
20161203070510 32 355 0.0 1.0 0.00 0.00 0.00 85 1007.9
20161203063413 33 80 0.0 3.0 0.00 0.00 0.00 85 1007.8
20161203060814 33 182 1.0 6.0 0.00 0.00 0.00 89 1007.5
20161203060513 34 253 0.0 5.0 0.00 0.00 0.00 89 1007.4
20161203054831 34 221 0.0 2.0 0.00 0.00 0.00 89 1007.2
20161203054512 35 221 0.0 9.0 0.00 0.00 0.00 89 1007.3
20161203053310 35 355 1.0 8.0 0.00 0.00 0.00 87 1007.1
20161203051510 36 332 1.0 10.0 0.00 0.00 0.00 84 1006.8
20161203050310 36 252 0.0 4.0 0.00 0.00 0.00 84 1006.6
20161203045510 36 189 2.0 5.0 0.00 0.00 0.00 84 1006.7
20161203044809 36 207 0.0 4.0 0.00 0.00 0.00 83 1006.7
20161203044510 36 228 0.0 3.0 0.00 0.00 0.00 83 1006.7
20161203043312 36 186 0.0 5.0 0.00 0.00 0.00 83 1006.6
20161203041817 36 302 0.0 8.0 0.00 0.00 0.00 82 1006.4
20161203040512 37 41 3.0 8.0 0.00 0.00 0.00 82 1006.5
20161203040320 36 296 1.0 6.0 0.00 0.00 0.00 82 1006.4
20161203034809 36 121 0.0 8.0 0.00 0.00 0.00 82 1006.5
20161203033318 36 221 1.0 16.0 0.00 0.00 0.00 82 1006.4
20161203032512 36 204 1.0 8.0 0.00 0.00 0.00 83 1006.4
20161203031510 36 215 2.0 8.0 0.00 0.00 0.00 84 1006.2
20161203030021 35 315 0.0 4.0 0.00 0.00 0.00 85 1006.3
20161203024512 35 317 0.0 2.0 0.00 0.00 0.00 85 1006.3
20161203023510 35 221 0.0 2.0 0.00 0.00 0.00 84 1006.4
20161203023025 35 248 0.0 2.0 0.00 0.00 0.00 84 1006.4
20161203021519 35 177 0.0 3.0 0.00 0.00 0.00 83 1006.4
20161203021514 36 177 0.0 3.0 0.00 0.03 0.00 83 1006.5
20161203020513 36 152 0.0 5.0 0.00 0.06 0.00 82 1006.4
20161203015512 36 212 2.0 5.0 0.00 0.07 0.00 82 1006.4
20161203014416 36 206 1.0 4.0 0.00 0.00 0.00 81 1006.5
20161203013513 36 188 2.0 10.0 0.00 0.08 0.00 81 1006.6
20161203013011 36 202 0.0 10.0 0.00 0.00 0.00 81 1006.6
20161203012513 36 240 2.0 10.0 0.00 0.09 0.00 81 1006.7
20161203011327 35 41 0.0 2.0 0.00 0.00 0.00 80 1006.6
20161203004326 35 255 1.0 7.0 0.00 0.00 0.00 80 1006.5
20161203003512 36 190 1.0 3.0 0.00 0.18 0.00 79 1006.6
20161203002814 35 244 0.0 3.0 0.00 0.00 0.00 78 1006.5
20161203001318 36 260 0.0 3.0 0.00 0.00 0.00 77 1006.5
20161202235821 36 11 0.0 2.0 0.00 0.00 0.00 76 1006.7
20161202234512 37 276 1.0 6.0 0.00 0.21 0.00 76 1006.8
20161202234313 36 208 1.0 4.0 0.00 0.00 0.00 76 1006.8
20161202233512 37 231 1.0 5.0 0.00 0.22 0.00 76 1006.8
20161202232829 36 125 0.0 1.0 0.00 0.00 0.00 76 1006.7
20161202232513 37 92 0.0 1.0 0.00 0.22 0.00 76 1006.7
20161202231310 36 307 0.0 1.0 0.00 0.00 0.00 75 1006.7
20161202230513 37 307 0.0 2.0 0.00 0.22 0.00 76 1006.7
20161202225810 36 309 1.0 4.0 0.00 0.00 0.00 76 1006.8
20161202225512 37 238 0.0 2.0 0.00 0.23 0.00 76 1006.8
20161202224316 37 186 0.0 3.0 0.00 0.00 0.00 75 1006.8
20161202222808 37 226 0.0 3.0 0.00 0.00 0.00 73 1006.8
20161202220513 40 225 0.0 3.0 0.00 0.36 0.00 68 1006.8
20161202215517 40 346 0.0 4.0 0.00 0.00 0.00 68 1006.8
20161202214512 41 325 0.0 10.0 0.00 0.40 0.00 67 1006.9
20161202214012 40 9 0.0 6.0 0.00 0.00 0.00 67 1006.9
20161202213512 41 318 2.0 10.0 0.00 0.41 0.00 66 1006.9
20161202212519 40 12 0.0 4.0 0.00 0.00 0.00 69 1006.8
20161202211021 41 222 0.0 5.0 0.00 0.00 0.00 68 1006.8
20161202205415 42 286 0.0 3.0 0.00 0.00 0.00 69 1006.8
20161202203910 42 236 0.0 6.0 0.00 0.00 0.00 69 1006.9
20161202203512 43 273 1.0 6.0 0.00 0.46 0.00 68 1006.8
20161202202512 43 358 1.0 6.0 0.00 0.46 0.00 67 1006.9
20161202202411 42 241 1.0 10.0 0.00 0.00 0.00 67 1006.9
20161202201512 43 324 2.0 6.0 0.00 0.47 0.00 68 1006.9
20161202200825 42 296 2.0 7.0 0.00 0.00 0.00 69 1006.8
20161202195312 43 226 1.0 6.0 0.00 0.00 0.00 68 1006.7
20161202194512 43 254 2.0 8.0 0.00 0.53 0.00 69 1006.6
20161202193511 43 221 1.0 8.0 0.00 0.53 0.00 70 1006.5
20161202190811 43 133 2.0 10.0 0.00 0.00 0.00 71 1006.4
20161202185334 43 219 0.0 9.0 0.00 0.00 0.00 71 1006.3
20161202184510 43 285 4.0 12.0 0.00 0.56 0.00 70 1006.3
20161202183830 43 112 2.0 13.0 0.00 0.00 0.00 70 1006.4
20161202182310 43 9 0.0 10.0 0.00 0.00 0.00 72 1006.3
20161202181510 43 320 3.0 9.0 0.00 0.58 0.00 70 1006.4
20161202180816 43 78 3.0 14.0 0.00 0.00 0.00 70 1006.4
20161202180512 43 201 2.0 9.0 0.00 0.58 0.00 71 1006.4
20161202175309 43 227 3.0 8.0 0.00 0.00 0.00 71 1006.5